RH
5 5 5 5 5 5 5 5 6 7 7 6 4 4 6 7 9 12 13 12 10 7 6 7 6 6 9 11 13 14 14 13 9 7 8 11 13 16 27 36 36 37 38 44 55 61 64 66 69 70 72 74 75 78 80 82 84 84 87 90 91 88 84 78 74 77 79 80 81 80 81 81 80 81 79 75 72 68 67 66 66 65 62 60 56 49 42 38
5 5 5 5 5 5 5 5 5 6 7 7 5 3 4 4 6 9 11 13 12 10 8 7 6 6 9 12 13 13 14 11 9 8 9 12 15 23 35 36 34 36 40 50 57 59 63 67 72 74 75 77 76 79 82 82 84 84 87 90 89 89 84 76 75 73 75 80 82 82 81 80 81 80 77 74 71 69 66 64 65 67 64 57 51 46 41 40
6 5 5 5 5 5 5 5 5 6 6 7 6 4 3 3 3 5 9 11 12 12 10 8 6 6 10 12 13 14 13 13 13 12 11 15 22 30 35 34 34 37 42 54 56 57 64 67 71 73 76 80 78 80 82 79 81 81 83 90 88 86 82 77 78 76 76 79 79 83 82 80 81 80 79 75 71 69 65 62 62 64 60 51 47 44 40 41
6 6 5 5 5 5 5 5 5 5 5 7 7 5 3 3 3 4 6 9 11 13 11 10 7 7 10 11 14 14 14 18 18 16 17 22 27 33 34 34 36 36 44 55 53 55 62 64 69 72 75 79 79 78 76 74 81 82 82 86 83 79 79 76 78 77 76 77 78 79 78 78 80 80 80 74 72 71 63 60 58 56 51 42 40 39 37 40
7 6 6 5 5 5 5 5 5 5 5 6 7 7 4 3 3 3 5 7 9 12 11 10 8 8 11 11 15 14 17 26 23 20 25 27 29 32 34 35 36 37 45 51 49 55 59 62 68 73 76 74 75 75 70 71 78 83 83 80 77 76 76 74 76 77 74 75 76 75 74 75 77 78 77 71 70 69 63 60 54 46 41 37 36 36 37 40
8 7 7 6 6 5 5 5 5 5 5 6 6 7 5 3 3 3 4 6 8 11 11 11 9 9 11 12 15 14 20 28 24 23 28 30 30 32 34 36 36 38 46 49 49 57 60 63 67 71 74 68 71 73 66 71 76 79 79 74 74 75 74 74 75 77 75 75 76 77 75 72 74 76 73 68 67 66 63 57 46 39 37 36 37 38 41 41
9 8 8 7 6 6 5 5 5 5 5 5 6 7 7 4 3 3 4 5 7 9 11 11 9 9 11 12 15 17 22 25 23 25 29 31 33 33 34 36 38 41 49 52 52 58 61 65 66 66 68 65 72 72 63 74 79 75 71 68 72 75 75 75 74 75 76 77 78 77 74 73 73 73 72 69 67 67 64 53 41 37 37 37 39 43 46 44
10 9 9 8 8 6 6 6 5 5 5 5 5 7 8 5 4 3 3 5 6 8 11 11 9 9 11 12 15 20 22 23 22 25 29 32 34 34 35 37 39 43 48 49 52 60 62 62 62 62 63 62 69 70 68 77 77 72 66 63 68 74 75 76 75 77 77 78 77 74 72 73 71 69 70 71 70 68 62 54 44 38 37 37 41 45 49 48
11 10 10 9 9 8 7 6 6 5 5 5 5 6 8 7 4 3 3 4 6 7 10 11 9 8 10 12 17 20 22 23 21 23 28 32 35 36 37 39 40 44 47 47 54 59 58 58 60 59 60 60 63 65 69 71 68 68 64 59 63 70 74 76 76 78 79 79 78 75 73 73 72 70 70 70 70 66 58 54 51 44 36 38 42 45 49 50
13 11 10 10 9 9 8 7 6 6 6 5 6 5 7 7 5 3 3 4 5 6 9 11 10 8 9 12 19 20 21 24 21 22 27 32 36 36 39 41 40 46 46 47 57 57 51 55 56 55 58 61 62 62 61 60 63 65 61 57 60 64 69 75 77 79 80 79 80 79 75 73 73 75 73 71 69 64 59 55 58 52 38 39 42 41 49 52
13 13 11 10 10 10 9 8 7 7 6 6 6 5 7 8 6 4 4 4 5 6 8 10 10 8 8 12 20 20 19 23 21 21 25 32 37 37 40 42 42 47 47 47 56 54 49 51 52 51 55 58 61 63 56 55 60 62 62 61 59 60 63 69 73 76 77 75 77 80 77 75 75 76 75 72 68 66 64 60 62 54 40 43 41 39 52 54
13 13 12 11 10 10 10 9 8 7 6 6 6 6 8 8 6 5 4 4 4 5 7 10 11 9 7 11 19 17 16 21 21 19 22 30 37 37 40 44 44 47 48 48 53 52 48 47 49 49 51 55 61 66 58 54 57 56 59 62 62 66 62 63 68 71 72 68 71 80 78 75 75 74 73 71 68 68 67 64 64 55 44 46 42 42 55 54
12 12 13 11 10 9 9 9 8 8 7 6 6 6 8 9 7 6 5 4 4 5 6 9 11 10 9 11 16 15 15 21 21 18 20 29 36 36 41 45 45 46 46 49 53 53 48 47 48 46 48 52 57 61 55 51 53 53 57 57 62 68 60 60 63 64 69 66 69 78 73 69 70 68 66 67 68 67 67 66 65 56 49 48 41 44 54 51
12 12 12 12 11 9 9 9 9 8 7 6 6 7 8 9 7 6 6 5 4 5 5 8 9 11 12 12 12 14 15 21 21 19 19 26 34 38 41 43 43 43 44 48 55 54 49 47 47 45 46 50 52 54 53 55 56 55 59 58 59 61 56 55 58 60 65 66 70 75 68 63 64 61 60 61 63 65 65 66 64 57 53 49 41 44 50 45
12 12 12 13 12 10 9 9 9 8 7 6 6 6 8 8 7 6 6 5 5 5 5 7 9 12 14 11 11 13 14 16 18 18 18 21 30 36 40 42 40 40 42 48 54 51 48 47 45 44 47 49 52 55 58 62 61 54 56 59 54 54 55 53 57 63 63 65 69 70 65 61 60 60 60 58 57 61 65 64 62 62 61 54 46 44 45 41
13 13 12 13 13 12 10 9 9 9 8 7 6 6 8 8 7 7 7 6 6 5 5 9 13 14 14 10 11 13 12 14 15 16 18 19 24 33 41 43 40 40 43 47 50 47 47 47 43 43 44 46 51 54 55 57 54 48 51 55 49 49 55 51 52 57 57 61 64 63 60 59 60 62 62 59 57 59 63 64 64 68 64 56 49 43 42 41
14 14 13 13 13 13 12 9 9 9 8 7 6 6 8 8 7 7 7 7 6 5 5 9 14 15 12 10 12 13 11 12 13 15 18 18 20 30 38 38 38 42 44 45 46 45 46 45 43 44 43 45 51 52 51 50 47 45 48 49 45 47 50 49 49 48 51 55 56 59 59 56 59 64 64 62 62 60 62 64 64 66 62 57 53 45 43 42
15 15 14 14 13 13 13 11 9 9 9 8 6 6 7 8 7 8 8 7 7 7 7 8 10 12 11 10 11 12 11 12 12 13 18 20 19 27 35 35 36 40 41 43 44 44 45 45 45 45 44 45 50 51 50 48 44 41 42 43 43 45 44 45 45 42 48 54 53 57 58 55 58 65 69 67 66 64 60 59 58 60 60 57 54 50 46 42
17 16 15 14 14 13 13 12 10 9 9 8 7 6 7 9 10 12 11 9 10 10 10 10 9 8 8 9 10 10 11 11 11 12 16 20 21 25 32 34 35 37 40 42 42 43 45 46 46 45 45 47 48 48 46 45 41 36 37 37 39 43 42 40 38 37 47 53 56 61 55 51 53 58 66 67 67 67 60 56 55 55 55 54 53 52 50 42
19 18 17 16 15 14 13 13 11 10 9 8 7 6 9 15 17 20 20 15 13 9 9 12 10 6 7 8 10 10 11 11 11 11 15 20 22 24 28 33 35 36 40 43 43 44 46 47 47 45 46 48 46 45 42 40 39 35 34 34 34 40 42 37 34 36 43 49 60 65 56 49 50 50 54 55 58 61 58 54 52 50 50 50 49 50 50 43
21 19 18 17 15 14 14 13 12 10 9 9 7 7 11 16 17 20 20 16 14 10 9 10 8 6 6 7 10 11 12 13 11 11 14 19 22 23 24 29 33 35 38 42 45 48 48 47 46 44 45 47 45 43 42 39 37 36 34 32 32 38 43 39 35 38 43 48 56 58 54 50 49 50 45 41 46 51 51 49 47 46 46 48 48 48 47 45
23 20 19 18 17 15 14 14 12 10 9 9 8 7 10 13 13 14 15 12 13 11 9 9 8 7 6 7 10 11 12 13 11 11 13 16 20 22 22 24 28 33 37 41 45 48 48 46 45 44 43 44 44 42 39 35 36 36 33 31 33 37 42 39 36 40 44 45 49 52 53 51 49 49 43 41 45 42 44 48 45 42 43 44 46 46 45 43
25 23 20 19 18 16 14 14 12 10 9 8 8 8 10 11 10 11 12 11 11 11 10 8 7 7 6 7 9 10 12 14 13 11 11 14 17 19 22 24 24 28 34 39 42 44 46 45 45 45 42 41 45 43 36 32 33 34 32 31 33 34 37 39 36 39 43 43 45 50 50 46 46 46 42 43 46 39 40 46 42 38 40 40 41 43 42 40
28 24 21 20 20 18 16 14 13 13 11 9 9 10 11 11 9 11 11 10 10 10 10 9 9 8 7 7 7 8 11 13 13 14 12 12 15 17 20 25 27 26 28 34 39 42 43 44 44 45 43 41 43 41 34 34 35 32 30 29 29 28 31 37 38 36 39 41 41 45 46 43 41 43 41 39 41 42 41 39 35 36 39 39 41 43 42 39
31 25 23 22 21 20 18 15 15 16 14 11 9 11 11 10 11 12 12 13 13 10 10 10 11 10 7 6 7 7 8 10 12 14 14 12 13 16 18 23 28 27 25 29 36 40 41 43 45 44 43 42 41 40 35 35 36 30 27 26 23 24 27 34 36 33 37 41 37 39 45 46 41 40 40 34 35 42 42 37 34 34 35 36 39 42 41 39
34 27 25 23 22 22 20 18 19 16 13 12 10 11 12 12 13 13 14 18 16 13 12 11 11 11 9 7 7 7 7 8 10 14 15 14 13 16 20 22 25 28 28 28 35 41 41 44 47 44 45 42 39 41 37 33 34 28 24 23 21 23 25 29 33 34 39 43 38 36 41 47 46 41 38 32 31 35 36 38 36 34 33 33 36 36 36 39
36 29 25 25 24 23 21 20 20 16 14 14 12 11 12 13 15 14 17 21 18 14 13 11 11 11 10 8 7 7 8 7 9 12 14 15 13 14 20 22 23 26 30 34 39 44 42 44 50 47 45 43 39 40 38 32 31 26 22 23 22 22 23 25 29 34 39 40 39 37 36 42 45 41 39 34 32 32 32 36 37 36 35 33 35 36 35 37
37 30 26 26 25 24 22 21 19 15 12 13 12 12 12 14 15 16 22 27 23 17 14 12 11 9 9 10 8 7 7 6 8 10 12 15 15 13 16 21 24 25 28 34 39 43 43 45 51 50 45 42 38 39 38 32 32 29 25 25 24 23 22 21 26 34 36 37 40 38 33 37 42 42 40 35 33 35 33 32 34 36 35 33 36 38 37 37
37 32 27 27 26 25 24 22 20 16 12 12 12 11 12 14 16 18 26 30 23 17 15 14 13 10 9 9 8 7 7 7 9 10 11 14 16 14 14 17 22 25 28 31 33 38 41 42 44 45 43 41 37 37 37 32 31 30 26 24 24 25 24 22 27 34 35 34 39 38 34 36 39 40 40 36 34 34 33 31 30 31 32 32 34 35 35 36
38 33 28 27 26 27 26 23 20 17 13 11 10 11 12 15 18 23 28 25 19 18 17 16 16 13 10 9 8 9 8 8 10 10 11 14 17 15 14 17 19 21 26 30 31 33 35 37 40 40 41 41 37 37 37 32 31 30 25 23 24 25 25 24 26 31 34 36 37 36 35 35 36 37 37 36 35 34 33 33 31 31 32 32 33 33 34 35
39 34 29 27 27 27 26 23 21 20 17 13 13 12 12 15 20 28 31 23 18 18 16 16 17 14 11 10 10 9 8 9 11 11 12 14 17 16 14 18 19 19 21 26 29 29 28 32 37 37 37 39 38 36 36 34 32 28 23 24 24 24 25 25 27 29 34 39 37 34 34 36 37 37 34 35 36 34 33 35 35 34 33 33 33 35 35 35
38 35 30 27 27 27 25 23 24 22 17 15 15 13 15 21 22 24 28 24 20 20 19 18 16 14 12 11 11 10 7 8 11 11 12 15 17 15 13 17 20 19 18 20 24 25 25 26 31 34 34 37 38 35 35 34 31 25 20 22 25 26 27 27 29 31 33 35 33 32 34 37 38 36 33 33 34 33 34 35 36 37 36 33 33 34 35 35
38 35 31 28 27 27 24 24 25 21 16 15 15 14 19 26 24 19 20 22 23 24 24 21 17 13 13 12 12 12 8 7 10 12 13 15 17 16 13 15 18 18 16 18 21 24 28 28 27 30 31 31 34 36 36 34 30 23 19 22 24 27 32 34 33 33 32 31 28 29 34 36 35 32 28 28 31 34 36 33 32 36 39 37 36 37 36 37
37 35 32 28 27 27 25 24 24 20 17 15 14 16 21 24 24 21 18 19 23 25 26 24 20 15 15 14 13 12 9 7 9 12 13 14 16 17 15 14 16 16 15 17 19 22 30 34 31 30 32 31 29 32 36 34 28 21 19 22 22 23 30 37 36 33 31 29 26 26 31 33 31 28 26 27 31 35 35 33 31 32 34 36 38 40 39 40
37 37 33 29 27 27 26 25 24 21 19 16 14 18 20 18 21 24 23 21 23 26 26 24 20 17 15 14 13 12 10 8 9 12 14 13 14 16 16 15 15 14 13 14 17 20 27 33 34 33 33 32 28 29 32 31 27 23 20 22 21 20 24 29 31 30 26 25 23 25 30 31 26 25 27 29 31 32 32 35 36 35 34 34 37 39 39 40
36 37 34 29 28 27 27 26 25 23 19 16 16 18 16 15 19 24 27 26 24 26 28 25 19 16 18 16 13 13 12 10 10 12 14 14 13 14 15 16 16 13 11 12 14 19 23 26 30 32 32 31 27 27 29 28 27 26 22 21 20 20 22 22 24 24 23 23 23 24 27 28 25 24 27 30 30 29 30 32 35 37 38 36 39 43 42 41
34 34 33 32 29 29 28 27 25 24 21 17 17 18 13 12 17 24 28 27 25 28 30 28 21 17 21 21 16 15 14 12 12 13 15 15 13 13 14 15 16 14 12 11 12 18 21 21 25 31 34 33 27 26 27 25 26 28 25 21 18 18 20 20 20 22 23 24 24 24 23 25 27 24 24 28 29 29 30 32 34 38 40 40 42 45 44 42
32 32 31 31 30 30 30 28 26 26 23 18 18 17 12 12 19 26 30 27 27 29 26 25 24 20 22 23 19 18 17 15 15 15 16 17 15 13 13 14 17 15 12 11 12 17 21 21 24 28 33 35 30 26 27 25 24 27 27 22 16 16 19 20 20 21 24 26 26 23 20 21 25 24 22 24 27 28 31 34 34 35 39 38 39 43 43 40
33 35 33 29 29 31 30 29 29 27 24 20 19 16 11 14 20 25 29 27 25 25 19 18 24 23 22 23 20 20 20 17 17 17 16 18 18 16 14 14 17 17 14 11 11 16 20 21 23 25 29 35 35 31 30 28 24 23 26 24 19 18 19 19 19 21 24 26 26 25 20 19 21 22 21 22 24 26 30 33 33 32 35 34 33 38 40 39
36 42 41 34 30 31 32 33 31 27 23 20 18 14 11 15 21 23 27 26 22 20 17 17 24 24 22 23 22 21 21 20 19 18 17 19 19 19 18 16 18 20 18 13 11 14 20 21 22 24 27 32 36 33 30 31 28 24 26 27 23 21 19 18 19 19 21 22 23 25 23 21 21 20 21 24 25 28 31 32 32 31 32 31 30 33 37 36
37 42 45 40 34 32 33 34 30 26 23 21 17 14 12 17 23 27 28 24 19 18 16 15 21 22 21 25 27 24 23 23 22 19 19 19 19 21 20 18 18 20 20 17 13 12 19 22 22 24 27 30 32 31 28 29 30 27 25 26 25 22 19 19 21 19 20 20 20 22 24 22 22 23 24 24 26 30 34 33 31 29 29 29 30 32 36 36
37 42 46 45 39 33 31 31 29 27 24 21 17 14 14 17 23 28 26 19 15 15 13 13 15 17 18 23 29 29 27 27 25 20 19 18 18 20 22 21 20 21 22 20 14 11 16 21 21 23 25 26 28 29 27 27 28 27 26 24 23 22 20 20 21 21 22 22 19 20 21 21 23 26 26 26 26 28 30 31 30 29 29 30 28 30 34 36
42 44 49 49 42 34 31 30 29 28 25 20 16 15 16 18 20 24 23 18 15 13 11 12 13 15 17 19 23 28 29 30 27 21 18 17 17 19 21 23 22 22 23 22 16 13 13 15 17 20 24 24 24 26 26 24 25 25 25 22 20 20 19 18 19 19 19 20 20 21 20 20 23 26 26 26 26 27 29 30 31 31 30 31 31 32 33 33
45 45 48 49 42 35 32 32 31 28 23 19 18 17 17 19 21 22 21 18 16 13 12 12 11 14 16 17 19 24 28 30 27 21 17 17 17 18 19 22 24 23 22 21 18 15 13 12 13 16 22 25 24 25 25 23 23 24 23 21 19 19 18 18 17 16 16 17 19 21 21 21 24 26 27 25 24 27 31 31 30 31 30 29 30 32 31 30
45 45 46 44 40 35 32 36 40 38 33 26 20 18 19 22 24 22 19 16 14 13 14 14 13 13 15 16 17 21 26 30 30 25 21 19 18 17 17 20 24 23 21 21 20 19 16 15 13 13 17 23 26 25 24 23 23 23 23 22 21 20 20 20 18 17 17 18 19 20 20 22 26 28 28 27 24 28 32 31 29 30 29 28 28 30 30 31
44 47 51 48 41 33 31 37 43 46 46 40 32 26 23 23 23 19 15 14 14 16 17 18 18 15 16 19 21 21 23 27 29 28 26 23 20 17 16 18 21 22 22 21 20 21 21 18 15 12 13 18 23 24 23 22 22 22 23 22 22 21 18 18 19 19 20 21 20 21 21 23 27 28 29 28 26 28 34 34 33 32 31 30 30 31 33 33
45 52 59 59 52 40 35 37 39 44 50 50 46 40 31 24 20 19 16 13 14 20 22 23 22 20 20 23 24 21 21 23 25 27 28 26 23 20 19 20 21 20 22 21 19 19 22 21 18 15 12 13 19 22 22 21 21 22 22 22 21 19 17 18 20 21 22 22 21 24 24 25 27 29 30 30 28 30 34 36 36 35 34 32 31 31 33 33
46 52 58 64 62 50 41 39 39 42 45 46 47 44 35 24 20 23 24 18 15 19 24 25 24 24 25 26 24 21 21 22 23 26 29 28 26 24 22 20 19 19 21 23 21 19 20 21 21 21 17 13 13 18 20 21 21 22 22 22 21 20 20 20 21 20 20 21 21 22 25 26 28 29 29 30 32 34 35 36 37 37 35 34 31 30 31 33
42 48 54 60 61 56 51 50 47 44 43 41 41 41 37 29 26 28 31 28 20 19 25 26 23 23 24 25 27 28 29 31 32 33 32 30 28 27 24 21 20 21 24 24 21 18 17 19 20 21 21 17 12 13 15 18 20 20 22 23 22 21 20 20 21 20 20 20 19 19 22 24 26 28 29 29 33 33 31 34 37 36 38 42 45 43 42 43
42 46 51 55 56 55 57 59 58 53 49 47 44 41 39 35 31 31 34 35 29 25 27 27 25 26 25 23 29 36 36 37 41 41 36 33 34 32 29 30 29 28 28 26 23 18 15 16 17 17 19 19 16 14 13 14 16 18 20 22 20 19 19 18 19 20 20 20 19 18 20 22 25 27 28 28 31 31 31 34 36 37 42 49 53 54 51 49
45 45 47 49 50 52 55 57 58 56 54 52 47 41 39 35 32 33 36 37 37 35 33 30 29 34 35 32 35 41 40 37 40 44 41 39 40 38 36 39 39 33 32 29 24 22 19 16 15 15 17 17 18 19 18 14 14 17 19 21 21 20 18 18 20 21 19 17 18 18 19 22 26 29 30 29 30 31 32 34 36 39 43 40 39 43 46 46
47 47 47 46 45 48 50 51 54 56 55 55 50 43 38 35 32 34 37 39 39 39 40 39 37 38 39 38 40 42 40 37 38 40 40 40 40 38 39 43 41 36 37 36 29 26 26 23 18 16 18 18 17 19 21 20 18 17 16 17 20 21 20 20 21 22 21 19 18 20 23 25 27 29 30 30 31 34 36 37 38 40 40 35 33 38 42 43